FENGYUN 1C DEB, 30247

Orbit data source: Space-Track

FENGYUN 1C DEB, 30247 is space debris in SSO originally from a launch on Mon, 10 May 1999 UTC launched from the Taiyaun Space Center, China (TSC). Fengyun 1C debris stems from the Chinese weather satellite Fengyun-1C, which was intentionally destroyed by a Chinese anti-satellite missile in 2007. This event dramatically increased the amount of space debris, with thousands of trackable fragments posing hazards to satellites and human spaceflight. The Fengyun 1C debris cloud has become a focal point in discussions about space sustainability and the need for international regulations to prevent the creation of new debris.

Loading next visibility...
Identifier
30247, 1999-025XG
Orbit
SSO
Country
Flag of CNCN / PRC
Related business
Manufacturer
Unknown
Mission
Spacecraft
Bus & Motor
Unknown
Mass
Unknown
Launch date (UTC)
1999-05-10 (27 years ago)
Launch vehicle
Unknown
Launch site
Taiyaun Space Center, China (TSC)
Object type
Payload
Rocket body
Debris
Shape & HBR
Unknown shape, 0.1 m
Radar Cross Section
Medium (>0.1 m² and <1 m²)

Expand to show TLE details & history
Last TLE update: 8 hours ago

TLE from 8 hours ago
0 FENGYUN 1C DEB
1 30247U 99025XG  26238.03639301  .00009327  00000-0  13474-2 0  9999
2 30247  98.2638 151.2335 0169626 269.1981 149.2568 14.67027013 10311
Epoch: 2026-08-26T00:52Z
TLE epoch observation values (Epoch: 2026-08-26T00:52:24.356Z)
Latitude
58.53625°
Longitude
150.18115°
Altitude
783.761 km
Speed
7.413 km/s
True Right ascension
09h 10m 18s
True Declination
58° 23' 00"
Sunlit
Object was in daylight at epoch
Visualization orbit readout
Latitude
Unknown
Longitude
Unknown
Altitude
Unknown
Speed
Unknown
Apparent Right ascension
Unknown
Apparent Declination
Unknown
Sunlit
N/A
Visualization observer readout
Local Sidereal Time
00:05:37
Azimuth
Unknown
Elevation
Unknown
Doppler factor
Unknown
Orbital elements
Apogee altitude
787.163 km
Perigee altitude
548.134 km
Semi-major axis
7,045.786 km
Eccentricity
0.01696
Inclination
98.2638°
RAAN
151.2335°
Arg. of periapsis
269.1981°
True anomaly
150.2326°
Mean anomaly
149.2568°
Eccentric anomaly
149.74646°
Mean motion
3.66986 °/min
Orbital period
98.1 mins
BSTAR
0.0013474
Loading maneuver chart data...
Computing Atmospheric mass density...
Loading historical data...
Loading historical data...
Loading historical data...
Loading historical data...
Loading historical data...
Loading historical data...
Loading historical data...

Documentation

Showing up to 5 results
|